• In Belgium
  • List of Countries
  • For 7 days
  • Water Temperature
  • Satellite Maps
  • Weather Map
  • Weather Widgets
  • user-avatar
    Login

    Hourly Weather Sevan

    Today, 24 November, Friday

    Time Temperature Precipitation Wind Pressure Humidity
    00:00 -3°C° 0.1 mm 1 mps 637 mmHg 72%
    01:00 -3°C° 0.1 mm 1 mps 637 mmHg 73%
    02:00 -3°C° 0.1 mm 1 mps 637 mmHg 73%
    03:00 -3°C° 0.1 mm 1 mps 637 mmHg 74%
    04:00 -4°C° 0.1 mm 1 mps 637 mmHg 73%
    05:00 -4°C° 0.1 mm 1 mps 637 mmHg 72%
    06:00 -4°C° 0.1 mm 1 mps 637 mmHg 72%
    07:00 -3°C° 0.1 mm 1 mps 638 mmHg 69%
    08:00 -3°C° 0.1 mm 1 mps 638 mmHg 66%
    09:00 -2°C° 0.1 mm 1 mps 638 mmHg 64%
    10:00 -1°C° 0 mm 1 mps 638 mmHg 60%
    11:00 -3°C° 0 mm 2 mps 638 mmHg 57%
    12:00 -2°C° 0 mm 2 mps 638 mmHg 54%
    13:00 -2°C° 0 mm 2 mps 638 mmHg 53%
    14:00 -2°C° 0 mm 2 mps 638 mmHg 53%
    15:00 -2°C° 0 mm 2 mps 638 mmHg 53%
    16:00 -3°C° 0 mm 2 mps 639 mmHg 55%
    17:00 -4°C° 0 mm 2 mps 639 mmHg 58%
    18:00 -3°C° 0 mm 1 mps 639 mmHg 61%
    19:00 -6°C° 0 mm 2 mps 639 mmHg 61%
    20:00 -6°C° 0 mm 2 mps 639 mmHg 61%
    21:00 -6°C° 0 mm 2 mps 640 mmHg 61%
    22:00 -6°C° 0 mm 2 mps 640 mmHg 61%
    23:00 -7°C° 0 mm 2 mps 640 mmHg 61%

    Tomorrow, 25 November, Saturday

    Time Temperature Precipitation Wind Pressure Humidity
    00:00 -7°C° 0 mm 2 mps 640 mmHg 61%
    01:00 -7°C° 0 mm 2 mps 640 mmHg 61%
    02:00 -7°C° 0 mm 2 mps 640 mmHg 61%
    03:00 -7°C° 0 mm 2 mps 641 mmHg 62%
    04:00 -7°C° 0 mm 2 mps 641 mmHg 63%
    05:00 -7°C° 0 mm 2 mps 641 mmHg 64%
    06:00 -7°C° 0 mm 2 mps 641 mmHg 66%
    07:00 -6°C° 0 mm 2 mps 642 mmHg 64%
    08:00 -5°C° 0 mm 2 mps 643 mmHg 63%
    09:00 -5°C° 0 mm 2 mps 643 mmHg 61%
    10:00 -4°C° 0 mm 2 mps 643 mmHg 57%
    11:00 -3°C° 0 mm 2 mps 643 mmHg 54%
    12:00 -2°C° 0 mm 2 mps 644 mmHg 50%
    13:00 -2°C° 0 mm 2 mps 643 mmHg 50%
    14:00 -2°C° 0 mm 2 mps 643 mmHg 49%
    15:00 -2°C° 0 mm 2 mps 643 mmHg 49%
    16:00 -3°C° 0 mm 2 mps 644 mmHg 51%
    17:00 -4°C° 0 mm 2 mps 644 mmHg 53%
    18:00 -5°C° 0 mm 2 mps 644 mmHg 56%
    19:00 -6°C° 0 mm 2 mps 644 mmHg 56%
    20:00 -6°C° 0 mm 2 mps 644 mmHg 56%
    21:00 -6°C° 0 mm 2 mps 645 mmHg 56%
    22:00 -4°C° 0 mm 1 mps 645 mmHg 56%
    23:00 -4°C° 0 mm 1 mps 645 mmHg 56%

    Day after tomorrow, 26 November, Sunday

    Time Temperature Precipitation Wind Pressure Humidity
    00:00 -4°C° 0 mm 1 mps 645 mmHg 56%
    01:00 -4°C° 0 mm 1 mps 645 mmHg 57%
    02:00 -4°C° 0 mm 1 mps 645 mmHg 58%
    03:00 -6°C° 0 mm 1 mps 645 mmHg 59%
    04:00 -6°C° 0 mm 1 mps 644 mmHg 59%
    05:00 -6°C° 0 mm 1 mps 644 mmHg 60%
    06:00 -6°C° 0 mm 1 mps 644 mmHg 61%
    07:00 -4°C° 0 mm 1 mps 645 mmHg 58%
    08:00 -2°C° 0 mm 1 mps 645 mmHg 55%
    09:00 -3°C° 0 mm 2 mps 645 mmHg 52%
    10:00 -2°C° 0 mm 2 mps 645 mmHg 48%
    11:00 +1°C° 0 mm 2 mps 645 mmHg 45%
    12:00 +2°C° 0 mm 2 mps 645 mmHg 41%
    13:00 +2°C° 0 mm 2 mps 644 mmHg 41%
    14:00 +2°C° 0 mm 2 mps 644 mmHg 40%
    15:00 +2°C° 0 mm 2 mps 643 mmHg 40%
    16:00 +1°C° 0 mm 2 mps 643 mmHg 42%
    17:00 -2°C° 0 mm 2 mps 643 mmHg 43%
    18:00 -3°C° 0 mm 2 mps 643 mmHg 45%
    19:00 -3°C° 0 mm 2 mps 643 mmHg 44%
    20:00 -3°C° 0 mm 2 mps 643 mmHg 44%
    21:00 -4°C° 0 mm 2 mps 643 mmHg 44%
    22:00 -4°C° 0 mm 2 mps 643 mmHg 45%
    23:00 -4°C° 0 mm 2 mps 643 mmHg 46%

    27 November, Monday

    Time Temperature Precipitation Wind Pressure Humidity
    00:00 -2°C° 0 mm 1 mps 643 mmHg 47%
    01:00 -2°C° 0 mm 1 mps 642 mmHg 48%
    02:00 -2°C° 0 mm 1 mps 642 mmHg 49%
    03:00 -2°C° 0 mm 1 mps 642 mmHg 50%
    04:00 -2°C° 0 mm 1 mps 642 mmHg 51%
    05:00 -2°C° 0 mm 1 mps 642 mmHg 52%
    06:00 -3°C° 0 mm 1 mps 641 mmHg 52%
    07:00 -1°C° 0 mm 1 mps 642 mmHg 51%
    08:00 -2°C° 0 mm 2 mps 642 mmHg 49%
    09:00 -1°C° 0 mm 2 mps 642 mmHg 47%
    10:00 +2°C° 0 mm 2 mps 642 mmHg 46%
    11:00 +3°C° 0 mm 2 mps 642 mmHg 45%
    12:00 +4°C° 0 mm 2 mps 641 mmHg 44%
    13:00 +4°C° 0 mm 2 mps 641 mmHg 44%
    14:00 +4°C° 0 mm 2 mps 641 mmHg 45%
    15:00 +4°C° 0 mm 2 mps 640 mmHg 45%
    16:00 +2°C° 0 mm 2 mps 640 mmHg 48%
    17:00 +1°C° 0 mm 2 mps 640 mmHg 50%
    18:00 -1°C° 0 mm 2 mps 640 mmHg 52%
    19:00 -2°C° 0 mm 2 mps 640 mmHg 53%
    20:00 -2°C° 0 mm 2 mps 640 mmHg 53%
    21:00 -2°C° 0 mm 2 mps 640 mmHg 54%
    22:00 -2°C° 0 mm 2 mps 640 mmHg 55%
    23:00 -2°C° 0 mm 2 mps 640 mmHg 56%

    28 November, Tuesday

    Time Temperature Precipitation Wind Pressure Humidity
    00:00 -2°C° 0 mm 2 mps 640 mmHg 57%
    01:00 -2°C° 0 mm 2 mps 640 mmHg 58%
    02:00 -2°C° 0 mm 2 mps 640 mmHg 59%
    03:00 -2°C° 0 mm 2 mps 640 mmHg 61%
    04:00 -2°C° 0 mm 2 mps 640 mmHg 62%
    05:00 -3°C° 0 mm 2 mps 640 mmHg 64%
    06:00 -3°C° 0 mm 2 mps 640 mmHg 65%
    07:00 -2°C° 0 mm 2 mps 640 mmHg 64%
    08:00 -1°C° 0 mm 2 mps 640 mmHg 62%
    09:00 0°C° 0 mm 3 mps 640 mmHg 60%
    10:00 +2°C° 0 mm 3 mps 640 mmHg 59%
    11:00 +3°C° 0 mm 3 mps 640 mmHg 57%
    12:00 +4°C° 0 mm 3 mps 640 mmHg 56%
    13:00 +4°C° 0 mm 4 mps 639 mmHg 56%
    14:00 +4°C° 0 mm 4 mps 639 mmHg 57%
    15:00 +4°C° 0 mm 4 mps 639 mmHg 58%
    16:00 +3°C° 0.1 mm 3 mps 639 mmHg 61%
    17:00 +2°C° 0.1 mm 3 mps 639 mmHg 64%
    18:00 +1°C° 0.1 mm 3 mps 639 mmHg 67%
    19:00 +1°C° 0.2 mm 3 mps 639 mmHg 69%
    20:00 +1°C° 0.2 mm 3 mps 639 mmHg 70%
    21:00 +1°C° 0.2 mm 3 mps 639 mmHg 72%
    22:00 +1°C° 0.1 mm 3 mps 639 mmHg 73%
    23:00 +1°C° 0.1 mm 3 mps 639 mmHg 74%

    29 November, Wednesday

    Time Temperature Precipitation Wind Pressure Humidity
    00:00 +1°C° 0.1 mm 3 mps 639 mmHg 76%
    01:00 +1°C° 0.1 mm 3 mps 639 mmHg 76%
    02:00 +2°C° 0.1 mm 2 mps 639 mmHg 77%
    03:00 +2°C° 0.1 mm 2 mps 639 mmHg 78%
    04:00 +2°C° 0.2 mm 2 mps 639 mmHg 78%
    05:00 +1°C° 0.2 mm 3 mps 639 mmHg 78%
    06:00 +1°C° 0.2 mm 3 mps 639 mmHg 78%
    07:00 +2°C° 0.2 mm 3 mps 639 mmHg 77%
    08:00 +2°C° 0.2 mm 3 mps 639 mmHg 75%
    09:00 +3°C° 0.2 mm 3 mps 639 mmHg 74%
    10:00 +4°C° 0.3 mm 3 mps 639 mmHg 72%
    11:00 +4°C° 0.3 mm 3 mps 638 mmHg 71%
    12:00 +5°C° 0.3 mm 3 mps 638 mmHg 69%
    13:00 +5°C° 0.4 mm 3 mps 638 mmHg 70%
    14:00 +5°C° 0.4 mm 3 mps 638 mmHg 70%
    15:00 +5°C° 0.4 mm 3 mps 638 mmHg 71%
    16:00 +4°C° 0.3 mm 3 mps 638 mmHg 72%
    17:00 +4°C° 0.3 mm 2 mps 638 mmHg 74%
    18:00 +4°C° 0.3 mm 2 mps 638 mmHg 76%
    19:00 +4°C° 0.2 mm 2 mps 638 mmHg 76%
    20:00 +4°C° 0.2 mm 2 mps 638 mmHg 76%
    21:00 +3°C° 0.2 mm 2 mps 638 mmHg 76%
    22:00 +3°C° 0.2 mm 2 mps 637 mmHg 77%
    23:00 +3°C° 0.2 mm 2 mps 637 mmHg 78%
    Show more